Location: Newark
(30.0333°N, 31.2167°E)
Time: 14:15:54
(UTC+00:00)

Tiros 1 despin weight - Pass Details

Date: 27 January 2020
Orbit: 594 x 642 km, 48.2° (Epoch: 27 February)

Event Time Altitude Azimuth Distance (km) Brightness Sun altitude
Rises 06:49:32 0° 214° (SW) 2,819 ? 21.9°
Reaches altitude 10° 06:51:52 10° 208° (SSW) 1,925 ? 22.3°
Maximum altitude 06:56:06 48° 134° (SE) 789 ? 23.0°
Drops below altitude 10° 07:00:25 10° 60° (ENE) 1,957 ? 23.7°
Sets 07:02:48 0° 55° (NE) 2,872 ? 24.1°
